QPF
0.00 0.00 0.00 0.01 0.01 0.01 0.01 0.01 0.01 0.01 0.01 0.01 0.01 0.01 0.01 0.01 0.01 0.01 0.01 0.00 0.00 0.00 0.01 0.02 0.01 0.01 0.01 0.01 0.01 0.01 0.01 0.01 0.01 0.01 0.01 0.02 0.02 0.01 0.01 0.01 0.01 0.01 0.01
0.00 0.00 0.00 0.01 0.01 0.01 0.01 0.01 0.02 0.01 0.01 0.01 0.01 0.01 0.01 0.01 0.01 0.01 0.01 0.01 0.01 0.01 0.02 0.02 0.02 0.01 0.01 0.01 0.01 0.00 0.00 0.00 0.00 0.00 0.01 0.01 0.01 0.01 0.01 0.01 0.01 0.01 0.01
0.00 0.00 0.00 0.01 0.01 0.02 0.02 0.02 0.02 0.02 0.01 0.01 0.01 0.01 0.01 0.01 0.01 0.01 0.01 0.01 0.01 0.01 0.02 0.02 0.02 0.01 0.01 0.00 0.00 0.00 0.00 0.00 0.00 0.01 0.01 0.01 0.01 0.01 0.01 0.01 0.02 0.02 0.02
0.00 0.00 0.00 0.01 0.01 0.02 0.02 0.02 0.02 0.02 0.02 0.02 0.02 0.01 0.01 0.01 0.01 0.02 0.02 0.02 0.01 0.01 0.01 0.01 0.01 0.01 0.00 0.00 0.00 0.00 0.00 0.00 0.00 0.00 0.01 0.01 0.01 0.02 0.02 0.02 0.02 0.02 0.02
0.00 0.00 0.01 0.01 0.02 0.02 0.02 0.03 0.03 0.02 0.02 0.02 0.02 0.01 0.01 0.02 0.02 0.02 0.02 0.02 0.01 0.01 0.01 0.00 0.00 0.00 0.00 0.00 0.00 0.00 0.00 0.00 0.00 0.00 0.01 0.01 0.01 0.02 0.02 0.02 0.01 0.01 0.01
0.00 0.00 0.01 0.01 0.02 0.02 0.03 0.03 0.03 0.03 0.03 0.02 0.02 0.02 0.02 0.02 0.02 0.02 0.02 0.01 0.01 0.00 0.00 0.00 0.00 0.00 0.00 0.00 0.00 0.00 0.00 0.00 0.00 0.00 0.01 0.01 0.01 0.01 0.01 0.01 0.01 0.01 0.00
0.00 0.00 0.01 0.01 0.02 0.02 0.03 0.03 0.03 0.04 0.03 0.02 0.02 0.02 0.02 0.02 0.02 0.02 0.01 0.01 0.01 0.00 0.00 0.00 0.00 0.00 0.00 0.00 0.00 0.00 0.00 0.00 0.00 0.00 0.00 0.00 0.00 0.01 0.01 0.01 0.00 0.00 0.00
0.00 0.00 0.01 0.02 0.03 0.03 0.03 0.04 0.04 0.04 0.04 0.03 0.03 0.03 0.03 0.03 0.02 0.01 0.01 0.01 0.01 0.01 0.00 0.00 0.00 0.00 0.00 0.00 0.00 0.00 0.00 0.00 0.00 0.00 0.00 0.00 0.00 0.01 0.01 0.00 0.00 0.00 0.00
0.00 0.01 0.01 0.03 0.04 0.05 0.05 0.06 0.06 0.05 0.05 0.04 0.04 0.04 0.03 0.03 0.02 0.02 0.01 0.01 0.01 0.01 0.00 0.00 0.00 0.00 0.00 0.00 0.00 0.00 0.00 0.00 0.00 0.00 0.00 0.00 0.01 0.01 0.00 0.00 0.00 0.00 0.01
0.01 0.01 0.02 0.03 0.04 0.06 0.07 0.07 0.08 0.07 0.07 0.06 0.06 0.05 0.03 0.03 0.02 0.02 0.01 0.01 0.01 0.01 0.00 0.00 0.00 0.00 0.00 0.00 0.00 0.00 0.00 0.00 0.00 0.00 0.00 0.00 0.00 0.00 0.00 0.01 0.01 0.01 0.01
0.02 0.02 0.03 0.04 0.05 0.06 0.07 0.06 0.08 0.08 0.08 0.09 0.08 0.06 0.04 0.03 0.03 0.02 0.01 0.01 0.01 0.01 0.00 0.00 0.00 0.00 0.00 0.00 0.00 0.00 0.00 0.00 0.00 0.00 0.00 0.00 0.00 0.00 0.01 0.01 0.01 0.00 0.00
0.02 0.03 0.04 0.06 0.07 0.10 0.10 0.09 0.09 0.09 0.09 0.10 0.07 0.06 0.06 0.04 0.02 0.01 0.01 0.01 0.01 0.01 0.01 0.01 0.00 0.00 0.00 0.00 0.00 0.00 0.00 0.00 0.00 0.00 0.00 0.00 0.00 0.00 0.01 0.01 0.01 0.00 0.00
0.02 0.03 0.04 0.06 0.08 0.11 0.13 0.12 0.10 0.10 0.09 0.09 0.07 0.05 0.05 0.04 0.02 0.01 0.01 0.01 0.01 0.01 0.01 0.01 0.00 0.00 0.00 0.00 0.00 0.00 0.00 0.00 0.00 0.00 0.00 0.00 0.00 0.01 0.01 0.01 0.00 0.00 0.00
0.02 0.04 0.05 0.07 0.10 0.12 0.15 0.16 0.13 0.11 0.10 0.09 0.07 0.05 0.04 0.03 0.02 0.01 0.01 0.01 0.01 0.01 0.01 0.00 0.00 0.00 0.00 0.00 0.00 0.00 0.00 0.00 0.00 0.00 0.00 0.00 0.01 0.01 0.01 0.00 0.01 0.00 0.00
0.03 0.05 0.07 0.09 0.10 0.13 0.17 0.17 0.16 0.14 0.11 0.09 0.07 0.05 0.03 0.02 0.01 0.01 0.00 0.01 0.01 0.00 0.00 0.00 0.00 0.00 0.00 0.00 0.00 0.00 0.00 0.00 0.00 0.00 0.00 0.00 0.00 0.00 0.00 0.00 0.00 0.00 0.00
0.04 0.07 0.08 0.10 0.10 0.11 0.16 0.18 0.17 0.15 0.14 0.11 0.08 0.05 0.03 0.02 0.01 0.01 0.01 0.01 0.00 0.00 0.00 0.00 0.00 0.00 0.00 0.00 0.00 0.00 0.00 0.00 0.00 0.00 0.00 0.00 0.00 0.00 0.00 0.00 0.01 0.01 0.00
0.03 0.07 0.10 0.09 0.10 0.11 0.14 0.18 0.21 0.18 0.16 0.13 0.08 0.06 0.04 0.02 0.01 0.01 0.01 0.01 0.00 0.00 0.00 0.00 0.00 0.00 0.00 0.00 0.00 0.00 0.00 0.00 0.00 0.00 0.00 0.00 0.00 0.00 0.00 0.00 0.01 0.01 0.00
0.04 0.07 0.10 0.10 0.09 0.11 0.12 0.18 0.22 0.24 0.18 0.14 0.10 0.07 0.05 0.03 0.01 0.01 0.00 0.00 0.00 0.00 0.00 0.00 0.00 0.00 0.00 0.00 0.00 0.00 0.00 0.00 0.00 0.00 0.00 0.00 0.00 0.00 0.00 0.00 0.01 0.01 0.00
0.04 0.07 0.10 0.11 0.10 0.10 0.13 0.16 0.22 0.25 0.22 0.17 0.12 0.09 0.06 0.04 0.02 0.01 0.00 0.00 0.00 0.00 0.00 0.00 0.00 0.00 0.00 0.00 0.00 0.00 0.00 0.00 0.00 0.00 0.00 0.00 0.00 0.00 0.00 0.00 0.00 0.00 0.00
0.04 0.07 0.09 0.13 0.12 0.11 0.15 0.17 0.21 0.26 0.24 0.19 0.13 0.09 0.08 0.05 0.03 0.01 0.01 0.00 0.00 0.00 0.00 0.00 0.00 0.00 0.00 0.00 0.00 0.00 0.00 0.00 0.00 0.00 0.00 0.00 0.00 0.00 0.00 0.00 0.00 0.00 0.00
0.05 0.07 0.09 0.11 0.15 0.12 0.15 0.19 0.20 0.22 0.24 0.20 0.14 0.10 0.09 0.06 0.04 0.02 0.01 0.01 0.00 0.00 0.00 0.00 0.00 0.00 0.00 0.00 0.00 0.00 0.00 0.00 0.00 0.00 0.00 0.00 0.00 0.00 0.00 0.00 0.00 0.00 0.00
0.06 0.06 0.06 0.07 0.12 0.12 0.13 0.19 0.22 0.21 0.21 0.21 0.17 0.12 0.11 0.08 0.05 0.02 0.01 0.01 0.00 0.00 0.00 0.00 0.00 0.00 0.00 0.00 0.00 0.00 0.00 0.00 0.00 0.00 0.00 0.00 0.00 0.00 0.00 0.00 0.00 0.00 0.00
0.07 0.06 0.04 0.05 0.08 0.11 0.12 0.18 0.26 0.28 0.25 0.23 0.20 0.15 0.12 0.09 0.06 0.03 0.02 0.01 0.00 0.00 0.00 0.00 0.00 0.00 0.00 0.00 0.00 0.00 0.00 0.00 0.00 0.00 0.00 0.00 0.00 0.00 0.00 0.00 0.00 0.00 0.00
0.08 0.07 0.04 0.04 0.06 0.09 0.11 0.14 0.23 0.31 0.29 0.22 0.20 0.16 0.14 0.09 0.06 0.03 0.02 0.01 0.00 0.00 0.00 0.00 0.00 0.00 0.00 0.00 0.00 0.00 0.00 0.00 0.00 0.00 0.00 0.00 0.00 0.00 0.00 0.00 0.00 0.00 0.00
0.11 0.10 0.06 0.05 0.06 0.07 0.10 0.12 0.16 0.25 0.30 0.26 0.22 0.19 0.17 0.13 0.08 0.04 0.03 0.01 0.01 0.00 0.00 0.00 0.00 0.00 0.00 0.00 0.00 0.00 0.00 0.00 0.00 0.00 0.00 0.00 0.00 0.00 0.00 0.00 0.00 0.00 0.00
0.14 0.16 0.10 0.08 0.07 0.07 0.09 0.12 0.15 0.20 0.27 0.31 0.28 0.23 0.19 0.16 0.10 0.06 0.04 0.02 0.01 0.00 0.00 0.00 0.00 0.00 0.00 0.00 0.00 0.00 0.00 0.00 0.00 0.00 0.00 0.00 0.00 0.00 0.00 0.00 0.00 0.00 0.00
MSLP
1006.08 1005.84 1005.81 1005.95 1006.22 1006.55 1006.88 1007.16 1007.39 1007.56 1007.72 1007.90 1008.13 1008.42 1008.79 1009.19 1009.59 1009.97 1010.31 1010.59 1010.84 1011.07 1011.33 1011.61 1011.94 1012.30 1012.67 1013.01 1013.30 1013.54 1013.71 1013.84 1013.95 1014.05 1014.17 1014.31 1014.45 1014.57 1014.67 1014.73 1014.75 1014.74 1014.74
1006.20 1005.98 1005.95 1006.09 1006.34 1006.65 1006.94 1007.19 1007.39 1007.54 1007.70 1007.90 1008.17 1008.53 1008.95 1009.40 1009.84 1010.24 1010.57 1010.84 1011.07 1011.29 1011.54 1011.84 1012.18 1012.55 1012.92 1013.26 1013.54 1013.75 1013.89 1013.99 1014.08 1014.17 1014.30 1014.45 1014.61 1014.75 1014.87 1014.94 1014.97 1014.97 1014.96
1006.06 1005.87 1005.86 1006.02 1006.29 1006.59 1006.88 1007.12 1007.30 1007.46 1007.63 1007.86 1008.18 1008.58 1009.05 1009.53 1009.99 1010.39 1010.72 1010.97 1011.19 1011.42 1011.67 1011.99 1012.35 1012.74 1013.13 1013.47 1013.74 1013.92 1014.04 1014.12 1014.19 1014.28 1014.41 1014.57 1014.75 1014.92 1015.06 1015.15 1015.19 1015.20 1015.21
1005.69 1005.54 1005.58 1005.77 1006.06 1006.38 1006.67 1006.92 1007.11 1007.29 1007.49 1007.76 1008.12 1008.56 1009.06 1009.56 1010.03 1010.44 1010.75 1011.01 1011.23 1011.46 1011.74 1012.08 1012.48 1012.90 1013.30 1013.65 1013.91 1014.09 1014.19 1014.25 1014.31 1014.40 1014.53 1014.71 1014.90 1015.10 1015.26 1015.37 1015.43 1015.46 1015.49
1005.19 1005.09 1005.17 1005.40 1005.72 1006.06 1006.37 1006.62 1006.83 1007.03 1007.26 1007.57 1007.97 1008.45 1008.98 1009.50 1009.98 1010.39 1010.71 1010.97 1011.21 1011.47 1011.78 1012.16 1012.59 1013.04 1013.47 1013.82 1014.09 1014.26 1014.36 1014.41 1014.46 1014.55 1014.69 1014.88 1015.08 1015.29 1015.47 1015.60 1015.69 1015.75 1015.81
1004.70 1004.64 1004.76 1005.02 1005.35 1005.69 1006.00 1006.26 1006.48 1006.70 1006.96 1007.31 1007.75 1008.27 1008.83 1009.38 1009.88 1010.30 1010.64 1010.92 1011.19 1011.48 1011.83 1012.24 1012.71 1013.18 1013.63 1014.00 1014.27 1014.45 1014.55 1014.61 1014.66 1014.76 1014.90 1015.09 1015.30 1015.52 1015.71 1015.86 1015.98 1016.07 1016.16
1004.34 1004.31 1004.44 1004.71 1005.03 1005.36 1005.64 1005.89 1006.10 1006.34 1006.63 1007.02 1007.50 1008.06 1008.66 1009.25 1009.78 1010.23 1010.60 1010.91 1011.21 1011.54 1011.92 1012.37 1012.85 1013.35 1013.80 1014.18 1014.46 1014.64 1014.75 1014.83 1014.90 1015.00 1015.15 1015.35 1015.56 1015.78 1015.98 1016.15 1016.29 1016.41 1016.54
1004.20 1004.17 1004.29 1004.53 1004.81 1005.09 1005.33 1005.54 1005.75 1005.98 1006.30 1006.73 1007.26 1007.86 1008.51 1009.14 1009.71 1010.20 1010.61 1010.97 1011.31 1011.67 1012.08 1012.54 1013.03 1013.53 1013.98 1014.35 1014.64 1014.83 1014.96 1015.05 1015.15 1015.28 1015.44 1015.64 1015.85 1016.07 1016.27 1016.45 1016.61 1016.76 1016.92
1004.29 1004.23 1004.32 1004.49 1004.70 1004.90 1005.08 1005.24 1005.42 1005.66 1006.00 1006.46 1007.03 1007.69 1008.39 1009.07 1009.70 1010.24 1010.69 1011.09 1011.47 1011.86 1012.29 1012.75 1013.23 1013.70 1014.14 1014.50 1014.78 1014.99 1015.14 1015.26 1015.39 1015.54 1015.73 1015.94 1016.16 1016.37 1016.57 1016.75 1016.92 1017.09 1017.27
1004.52 1004.42 1004.45 1004.54 1004.65 1004.76 1004.86 1004.96 1005.11 1005.34 1005.70 1006.20 1006.82 1007.53 1008.28 1009.02 1009.70 1010.29 1010.80 1011.25 1011.67 1012.08 1012.51 1012.96 1013.42 1013.86 1014.26 1014.61 1014.88 1015.09 1015.27 1015.43 1015.60 1015.79 1016.00 1016.23 1016.46 1016.67 1016.86 1017.04 1017.22 1017.39 1017.59
1004.80 1004.65 1004.58 1004.58 1004.58 1004.59 1004.61 1004.66 1004.78 1005.01 1005.39 1005.91 1006.58 1007.33 1008.13 1008.92 1009.66 1010.31 1010.88 1011.38 1011.84 1012.28 1012.71 1013.15 1013.58 1013.98 1014.35 1014.66 1014.92 1015.15 1015.35 1015.54 1015.76 1015.99 1016.24 1016.49 1016.73 1016.94 1017.14 1017.31 1017.48 1017.65 1017.85
1005.00 1004.78 1004.63 1004.52 1004.42 1004.34 1004.29 1004.29 1004.38 1004.61 1005.00 1005.55 1006.24 1007.03 1007.87 1008.71 1009.50 1010.22 1010.85 1011.42 1011.93 1012.40 1012.84 1013.27 1013.68 1014.05 1014.38 1014.67 1014.92 1015.15 1015.37 1015.61 1015.86 1016.14 1016.42 1016.70 1016.95 1017.18 1017.37 1017.54 1017.70 1017.86 1018.04
1005.05 1004.76 1004.52 1004.31 1004.13 1003.97 1003.86 1003.82 1003.90 1004.13 1004.52 1005.08 1005.78 1006.59 1007.46 1008.34 1009.18 1009.97 1010.68 1011.31 1011.89 1012.41 1012.88 1013.32 1013.71 1014.06 1014.37 1014.64 1014.88 1015.12 1015.36 1015.63 1015.92 1016.23 1016.55 1016.85 1017.13 1017.37 1017.56 1017.73 1017.88 1018.03 1018.19
1004.91 1004.54 1004.22 1003.94 1003.69 1003.48 1003.33 1003.28 1003.34 1003.56 1003.95 1004.50 1005.20 1006.00 1006.88 1007.79 1008.68 1009.53 1010.33 1011.05 1011.70 1012.29 1012.82 1013.28 1013.69 1014.03 1014.33 1014.59 1014.83 1015.07 1015.34 1015.63 1015.95 1016.29 1016.63 1016.96 1017.25 1017.50 1017.70 1017.87 1018.01 1018.15 1018.28
1004.61 1004.19 1003.80 1003.46 1003.17 1002.93 1002.76 1002.70 1002.75 1002.96 1003.32 1003.85 1004.51 1005.30 1006.17 1007.09 1008.03 1008.95 1009.83 1010.65 1011.40 1012.07 1012.67 1013.18 1013.61 1013.97 1014.28 1014.54 1014.79 1015.04 1015.31 1015.62 1015.96 1016.31 1016.67 1017.01 1017.32 1017.58 1017.78 1017.95 1018.09 1018.22 1018.34
1004.26 1003.78 1003.34 1002.97 1002.65 1002.40 1002.24 1002.17 1002.22 1002.40 1002.73 1003.20 1003.82 1004.57 1005.41 1006.34 1007.30 1008.28 1009.24 1010.16 1011.01 1011.78 1012.45 1013.03 1013.51 1013.90 1014.22 1014.50 1014.76 1015.03 1015.31 1015.62 1015.96 1016.32 1016.68 1017.02 1017.32 1017.58 1017.80 1017.98 1018.12 1018.24 1018.34
1003.95 1003.43 1002.96 1002.57 1002.24 1002.00 1001.84 1001.78 1001.81 1001.96 1002.24 1002.65 1003.20 1003.89 1004.70 1005.61 1006.60 1007.63 1008.66 1009.66 1010.61 1011.46 1012.21 1012.85 1013.38 1013.82 1014.17 1014.48 1014.76 1015.04 1015.33 1015.64 1015.97 1016.31 1016.65 1016.98 1017.27 1017.53 1017.75 1017.93 1018.08 1018.20 1018.30
1003.79 1003.24 1002.74 1002.33 1002.01 1001.78 1001.63 1001.57 1001.59 1001.70 1001.92 1002.26 1002.74 1003.36 1004.12 1005.01 1006.00 1007.06 1008.15 1009.22 1010.23 1011.15 1011.97 1012.66 1013.25 1013.73 1014.13 1014.47 1014.78 1015.07 1015.37 1015.68 1015.99 1016.30 1016.61 1016.90 1017.17 1017.42 1017.63 1017.82 1017.97 1018.10 1018.20
1003.83 1003.24 1002.72 1002.30 1001.98 1001.76 1001.62 1001.55 1001.55 1001.62 1001.78 1002.05 1002.46 1003.01 1003.72 1004.58 1005.56 1006.63 1007.74 1008.85 1009.90 1010.87 1011.73 1012.47 1013.09 1013.61 1014.05 1014.44 1014.79 1015.11 1015.42 1015.72 1016.01 1016.29 1016.55 1016.80 1017.03 1017.25 1017.45 1017.63 1017.79 1017.93 1018.04
1004.05 1003.43 1002.89 1002.45 1002.13 1001.90 1001.75 1001.67 1001.65 1001.68 1001.79 1002.00 1002.34 1002.83 1003.49 1004.31 1005.27 1006.34 1007.46 1008.57 1009.63 1010.61 1011.49 1012.25 1012.90 1013.46 1013.94 1014.38 1014.77 1015.13 1015.46 1015.76 1016.03 1016.27 1016.48 1016.67 1016.86 1017.03 1017.21 1017.38 1017.55 1017.70 1017.82
1004.39 1003.75 1003.18 1002.72 1002.37 1002.12 1001.96 1001.86 1001.80 1001.80 1001.86 1002.02 1002.31 1002.76 1003.38 1004.17 1005.10 1006.15 1007.24 1008.34 1009.39 1010.35 1011.22 1011.98 1012.65 1013.24 1013.77 1014.26 1014.70 1015.10 1015.46 1015.77 1016.02 1016.23 1016.39 1016.53 1016.66 1016.79 1016.94 1017.10 1017.26 1017.43 1017.56
1004.79 1004.13 1003.53 1003.03 1002.64 1002.36 1002.16 1002.02 1001.93 1001.89 1001.91 1002.04 1002.29 1002.71 1003.30 1004.06 1004.97 1005.98 1007.05 1008.11 1009.12 1010.05 1010.89 1011.64 1012.32 1012.94 1013.51 1014.06 1014.56 1015.02 1015.41 1015.74 1015.98 1016.16 1016.27 1016.36 1016.43 1016.52 1016.64 1016.79 1016.96 1017.14 1017.30
1005.17 1004.49 1003.86 1003.32 1002.88 1002.54 1002.29 1002.10 1001.97 1001.88 1001.88 1001.97 1002.20 1002.60 1003.17 1003.91 1004.80 1005.78 1006.81 1007.83 1008.79 1009.68 1010.49 1011.23 1011.91 1012.55 1013.17 1013.77 1014.33 1014.85 1015.29 1015.63 1015.88 1016.04 1016.12 1016.16 1016.20 1016.25 1016.34 1016.49 1016.66 1016.86 1017.05
1005.47 1004.80 1004.14 1003.55 1003.05 1002.65 1002.33 1002.08 1001.89 1001.77 1001.72 1001.79 1002.00 1002.38 1002.93 1003.66 1004.53 1005.48 1006.48 1007.46 1008.38 1009.23 1010.02 1010.74 1011.42 1012.09 1012.75 1013.40 1014.02 1014.58 1015.06 1015.44 1015.70 1015.85 1015.92 1015.93 1015.94 1015.97 1016.06 1016.20 1016.39 1016.61 1016.84
1005.68 1005.02 1004.36 1003.73 1003.18 1002.71 1002.32 1002.00 1001.75 1001.56 1001.47 1001.50 1001.68 1002.04 1002.57 1003.28 1004.13 1005.06 1006.03 1006.98 1007.88 1008.71 1009.47 1010.19 1010.88 1011.56 1012.26 1012.94 1013.61 1014.22 1014.74 1015.15 1015.43 1015.58 1015.65 1015.66 1015.66 1015.70 1015.79 1015.94 1016.16 1016.42 1016.68
1005.79 1005.18 1004.53 1003.88 1003.29 1002.77 1002.31 1001.92 1001.59 1001.34 1001.18 1001.16 1001.29 1001.61 1002.11 1002.80 1003.62 1004.53 1005.48 1006.42 1007.30 1008.12 1008.88 1009.60 1010.30 1011.00 1011.72 1012.43 1013.13 1013.77 1014.32 1014.75 1015.05 1015.23 1015.31 1015.34 1015.35 1015.41 1015.52 1015.71 1015.97 1016.26 1016.57
Thickness
5797 5799 5794 5791 5789 5787 5786 5784 5782 5780 5777 5775 5773 5771 5769 5767 5765 5763 5761 5759 5758 5756 5755 5753 5751 5749 5747 5745 5743 5741 5739 5738 5736 5734 5733 5731 5730 5728 5726 5724 5723 5720 5719
5798 5796 5791 5787 5785 5783 5782 5780 5778 5776 5773 5771 5769 5767 5765 5763 5762 5759 5758 5756 5754 5753 5751 5749 5748 5746 5744 5741 5739 5737 5735 5734 5732 5731 5729 5727 5726 5724 5722 5720 5718 5716 5714
5794 5792 5786 5783 5780 5779 5777 5776 5774 5771 5769 5767 5765 5764 5761 5760 5758 5756 5754 5753 5751 5750 5748 5746 5744 5742 5739 5737 5735 5733 5731 5730 5729 5727 5725 5723 5721 5720 5717 5715 5713 5711 5709
5789 5786 5781 5778 5776 5774 5773 5771 5769 5767 5765 5763 5762 5760 5758 5756 5754 5752 5751 5749 5747 5746 5744 5742 5740 5737 5735 5732 5730 5729 5727 5727 5725 5724 5721 5719 5717 5715 5713 5711 5709 5706 5704
5782 5781 5777 5773 5771 5769 5768 5766 5765 5763 5761 5759 5758 5756 5754 5752 5750 5749 5747 5745 5743 5741 5739 5737 5735 5733 5730 5728 5726 5725 5724 5723 5722 5720 5717 5714 5712 5710 5708 5705 5703 5701 5698
5774 5775 5772 5768 5766 5764 5762 5761 5760 5758 5756 5755 5753 5751 5750 5748 5746 5744 5742 5741 5739 5737 5735 5733 5731 5729 5726 5724 5722 5721 5720 5719 5718 5715 5713 5709 5707 5705 5703 5700 5698 5695 5693
5765 5766 5764 5762 5760 5759 5757 5756 5754 5753 5752 5750 5748 5747 5745 5743 5741 5739 5737 5736 5734 5732 5730 5728 5726 5724 5722 5720 5718 5717 5716 5715 5714 5711 5708 5705 5702 5701 5698 5695 5693 5690 5688
5757 5757 5756 5755 5753 5753 5752 5751 5749 5748 5746 5745 5743 5742 5740 5738 5736 5735 5733 5731 5729 5728 5726 5724 5722 5719 5717 5715 5714 5712 5712 5711 5709 5706 5703 5700 5698 5696 5693 5690 5687 5685 5682
5750 5748 5747 5746 5746 5745 5745 5745 5744 5742 5741 5739 5738 5736 5735 5733 5731 5730 5728 5726 5724 5723 5721 5719 5717 5715 5713 5711 5709 5708 5708 5707 5705 5702 5698 5695 5693 5691 5688 5685 5682 5679 5676
5739 5739 5738 5738 5738 5738 5738 5738 5737 5736 5735 5734 5732 5730 5729 5728 5726 5724 5723 5721 5719 5718 5716 5714 5712 5710 5708 5706 5705 5704 5704 5702 5700 5697 5693 5690 5688 5686 5683 5680 5677 5674 5671
5726 5729 5730 5730 5730 5731 5730 5730 5730 5730 5729 5728 5726 5724 5723 5722 5720 5719 5717 5716 5714 5713 5711 5709 5707 5705 5703 5702 5701 5700 5699 5698 5696 5692 5689 5686 5684 5681 5678 5675 5671 5668 5665
5711 5716 5720 5722 5722 5723 5723 5723 5723 5723 5722 5721 5720 5719 5718 5717 5715 5713 5712 5710 5709 5708 5706 5704 5702 5701 5699 5697 5697 5696 5695 5694 5691 5687 5684 5681 5679 5676 5673 5670 5666 5663 5660
5701 5705 5710 5712 5714 5715 5715 5716 5716 5716 5716 5715 5715 5714 5713 5711 5710 5708 5706 5705 5704 5702 5701 5699 5698 5697 5695 5694 5693 5692 5691 5690 5687 5683 5679 5677 5674 5671 5668 5665 5661 5658 5654
5688 5694 5699 5703 5704 5706 5708 5708 5709 5710 5710 5710 5710 5710 5708 5706 5705 5703 5702 5701 5699 5698 5697 5695 5694 5693 5692 5691 5689 5689 5688 5686 5683 5678 5674 5672 5669 5666 5663 5660 5656 5653 5649
5675 5682 5688 5692 5694 5696 5699 5701 5702 5703 5704 5705 5705 5705 5704 5702 5701 5700 5699 5697 5695 5694 5693 5692 5691 5690 5689 5687 5686 5685 5683 5682 5678 5674 5670 5667 5664 5661 5658 5654 5651 5648 5644
5662 5669 5676 5681 5685 5688 5690 5693 5695 5696 5697 5699 5700 5700 5700 5699 5698 5696 5695 5693 5692 5691 5689 5689 5688 5687 5685 5683 5682 5681 5679 5677 5674 5670 5666 5663 5659 5655 5652 5649 5646 5642 5638
5650 5656 5663 5669 5674 5677 5680 5684 5687 5689 5691 5692 5694 5695 5695 5695 5694 5692 5691 5689 5688 5687 5685 5685 5684 5682 5680 5679 5677 5676 5674 5672 5669 5666 5662 5659 5654 5650 5647 5643 5640 5636 5632
5639 5644 5650 5657 5661 5667 5670 5674 5679 5682 5684 5687 5688 5689 5690 5690 5690 5688 5686 5685 5684 5683 5681 5680 5679 5676 5674 5672 5671 5670 5669 5667 5664 5662 5658 5655 5650 5646 5642 5638 5634 5630 5626
5628 5633 5638 5644 5649 5655 5660 5665 5670 5674 5677 5680 5682 5683 5685 5686 5685 5684 5682 5681 5680 5678 5676 5675 5673 5671 5668 5667 5665 5664 5663 5661 5659 5657 5654 5650 5646 5642 5637 5633 5629 5624 5620
5617 5622 5627 5633 5638 5644 5649 5654 5659 5665 5669 5673 5676 5677 5679 5680 5681 5679 5677 5676 5675 5673 5671 5670 5667 5666 5663 5661 5660 5658 5656 5655 5654 5651 5649 5646 5642 5637 5633 5628 5624 5619 5614
5606 5610 5616 5622 5628 5634 5639 5644 5649 5655 5661 5665 5670 5671 5674 5675 5675 5675 5673 5672 5670 5668 5667 5665 5663 5660 5657 5657 5652 5649 5649 5649 5648 5646 5644 5641 5637 5633 5628 5624 5619 5614 5609
5597 5601 5606 5613 5620 5626 5632 5638 5644 5649 5654 5658 5662 5665 5668 5669 5670 5671 5670 5668 5666 5664 5662 5661 5658 5655 5652 5652 5648 5642 5639 5638 5639 5641 5638 5635 5632 5628 5624 5619 5614 5608 5603
5589 5593 5600 5606 5612 5618 5624 5631 5635 5640 5645 5650 5656 5658 5662 5664 5665 5665 5665 5664 5662 5661 5659 5657 5655 5651 5647 5646 5646 5642 5636 5633 5633 5633 5633 5630 5627 5623 5619 5614 5609 5604 5598
5585 5589 5594 5600 5607 5611 5617 5624 5629 5634 5640 5647 5651 5654 5657 5659 5661 5661 5661 5660 5659 5657 5655 5653 5651 5648 5645 5642 5640 5641 5639 5637 5630 5625 5625 5624 5622 5618 5614 5609 5604 5599 5593
5580 5584 5590 5595 5600 5606 5611 5618 5624 5629 5635 5641 5645 5648 5650 5652 5655 5656 5656 5656 5654 5653 5651 5649 5647 5645 5643 5640 5637 5635 5633 5632 5630 5623 5618 5616 5614 5612 5609 5604 5599 5593 5587
5574 5579 5585 5590 5595 5601 5607 5614 5620 5624 5629 5633 5639 5642 5643 5647 5650 5652 5652 5652 5651 5649 5647 5646 5644 5641 5639 5637 5634 5632 5629 5626 5623 5620 5615 5611 5608 5606 5603 5598 5593 5588 5581